Tracking 29892 objects as of 21-Nov-2024
HD Live streaming from Space Station
objects crossing your sky now

COSMOS 970 DEB

Track COSMOS 970 DEB now!
10-day predictions


NORAD ID: 14443
Int'l Code: 1977-121BF
Perigee: 639.4 km
Apogee: 775.9 km
Inclination: 65.6 °
Period: 98.8 minutes
Semi major axis: 7078 km
RCS: 0.026 m2 (small)
Launch date: December 21, 1977
Source: Commonwealth of Independent States (former USSR) (CIS)
Launch site: TYURATAM MISSILE AND SPACE COMPLEX (TTMTR)

Note: This is SATELLITE DEBRIS
Your satellite tracking list
Your tracking list is empty




NASA's NSSDC Master Catalog

Two Line Element Set (TLE):
1 14443U 77121BF  24325.94812177  .00008585  00000-0  17810-2 0  9994
2 14443  65.5782 163.4758 0096381 108.9606 252.1972 14.57728369252449
Source of the keplerian elements: AFSPC